Regional Weather Roundup
Issued by NWS Cleveland, OH

Home | Current Version | Previous Version | Text Only | Print | Product List | Glossary Off
Versions: 1 2 3 4 5 6 7 8 9 10 11 12 13 14 15 16 17 18 19 20 21 22 23 24 25 26 27 28 29 30 31 32 33 34 35 36 37 38 39 40 41 42 43 44 45 46 47 48 49 50

000
ASUS41 KCLE 280600
RWRCLE
OHIO REGIONAL WEATHER ROUNDUP
NATIONAL WEATHER SERVICE WILMINGTON, OH
200 AM EDT MON JUL 28 2014

NOTE: "FAIR" INDICATES FEW OR NO CLOUDS BELOW 12,000 FEET WITH NO
SIGNIFICANT WEATHER AND/OR OBSTRUCTIONS TO VISIBILITY.

OHZ001>008-015>018-024>027-034-035-043-044-280700-
   NORTHWEST OHIO

CITY           SKY/WX    TMP DP  RH WIND       PRES   REMARKS
DEFIANCE       PTCLDY    63  58  83 NW7       29.76R
FINDLAY        PTCLDY    64  60  87 W8        29.73R
TOLEDO EXPRESS PTCLDY    62  57  83 NW5       29.74S
TOLEDO METCALF MOCLDY    63  56  78 NW8       29.73S
LIMA           CLEAR     63  59  87 W12       29.75S
$$

OHZ009>014-019>023-028>033-038-089-280700-
   NORTHEAST OHIO

CITY           SKY/WX    TMP DP  RH WIND       PRES   REMARKS
CLE-HOPKINS    TSTM      64  62  93 W9        29.68S FOG
CLE-LAKEFRONT  LGT RAIN  66  63  90 SW10      29.65S
CUY CO. ARPT   NOT AVBL
LORAIN-ELYRIA  MOCLDY    66  62  87 W9        29.69S
ASHTABULA      PTCLDY    58  57  97 W6        29.63F
AKRON-CANTON   CLOUDY    64  61  90 W7        29.67S FOG
WOOSTER        NOT AVBL
MANSFIELD      PTCLDY    61  60  97 W6        29.72R
YOUNGSTOWN     CLOUDY    62  61  96 SW5       29.63F FOG
$$

OHZ042-051>053-060>062-070>072-077>081-280700-
  SOUTHWEST OHIO

CITY           SKY/WX    TMP DP  RH WIND       PRES   REMARKS
CINC-COVINGTON PTCLDY    66  59  78 W9        29.83R
CINC-LUNKEN    MOCLDY    71  58  63 NW5       29.81S
HAMILTON       PTCLDY    66  59  78 W3        29.81S
DAYTON         NOT AVBL
WRIGHT-PAT AFB CLEAR     67  58  72 W10       29.78R
DAYTON GENERAL CLOUDY    68  57  68 NW7       29.79S
WILMINGTON     MOCLDY    67  57  70 W8        29.79R
$$

OHZ036-037-039>041-045>050-054>059-063>069-073>076-082>088-280700-
  CENTRAL AND SOUTHEAST OHIO

CITY           SKY/WX    TMP DP  RH WIND       PRES   REMARKS
COLUMBUS       MOCLDY    67  62  84 W6        29.73R
OSU AIRPORT    CLEAR     64  62  93 W7        29.74R
BOLTON FIELD   NOT AVBL
RICKENBACK AFB NOT AVBL
NEWARK         CLEAR     64  62  93 W8        29.71S
MARION         PTCLDY    63  61  93 NW7       29.73R
LANCASTER      CLEAR     66  63  90 W8        29.74R
ZANESVILLE     PTCLDY    65  62  90 W8        29.70S
NEW PHILLY     PTCLDY    63  61  93 W3        29.68S
$$



USA.gov is the U.S. government's official web portal to all federal, state and local government web resources and services.